Weather History for KHOP - October, 2013

Change the Weather History Date:

Sunday, October 6, 2013

  Actual Average Record
Temperature  
Mean Temperature 64 °F -  
Max Temperature 74 °F 73 °F 89 °F (1997)
Min Temperature 51 °F 50 °F 38 °F (2010)
Growing Degree Days 14 (Base 50)    
Moisture  
Dew Point 61 °F    
Average Humidity 96    
Maximum Humidity 100    
Minimum Humidity 76    
Precipitation  
Precipitation 1.69 in - - ()
Sea Level Pressure  
Sea Level Pressure 29.88 in    
Wind  
Wind Speed 7 mph (West)    
Max Wind Speed 21 mph    
Max Gust Speed 28 mph    
Visibility 8 miles    
Events Rain , Thunderstorm    
Averages and records for this station are not official NWS values.
T = Trace of Precipitation, MM = Missing Value Source: NWS Daily Summary

Daily Weather History Graph

Daily Weather History Graph

Search for Another Location

Airport or City:

Trip Planner

Search our weather history database for the weather conditions in past years. The results will help you decide how hot, cold, wet, or windy it might be!

Date:

Astronomy

Oct. 06, 2013 Rise Set
Actual Time 6:49 AM CDT 6:25 PM CDT
Civil Twilight 6:23 AM CDT 6:51 PM CDT
Nautical Twilight 5:53 AM CDT 7:21 PM CDT
Astronomical Twilight 5:23 AM CDT 7:51 PM CDT
Moon 8:30 AM CDT (10/6) 7:28 PM CDT (10/6)
Length of Visible Light 12h 27m
Length of Day
11h 36m
Waxing Crescent, 3% of the Moon is Illuminated
Oct 6
Waxing Crescent
Oct 11
First Quarter
Oct 18
Full
Oct 26
Last Quarter
Nov 3
New

Hourly Weather History & Observations

Time (CDT) Temp. Dew Point Humidity Pressure Visibility Wind Dir Wind Speed Gust Speed Precip Events Conditions
12:58 AM 74.1 °F 69.8 °F 86% 29.85 in 10.0 mi SSE 5.8 mph - N/A   Partly Cloudy
1:58 AM 73.9 °F 68.4 °F 83% 29.84 in 10.0 mi SSE 8.1 mph - N/A   Scattered Clouds
2:25 AM 75.2 °F 68.0 °F 78% 29.88 in 10.0 mi West 20.7 mph 24.2 mph N/A   Mostly Cloudy
2:36 AM 71.6 °F 68.0 °F 88% 29.88 in 10.0 mi NW 13.8 mph 27.6 mph N/A   Overcast
2:43 AM 69.8 °F 68.0 °F 94% 29.88 in 10.0 mi NW 11.5 mph - N/A Rain Light Rain
2:58 AM 69.1 °F 68.7 °F 99% 29.86 in 5.0 mi NW 10.4 mph - 0.02 in Rain Heavy Rain
3:22 AM 68.0 °F 68.0 °F 100% 29.86 in 5.0 mi North 5.8 mph - N/A Rain Rain
3:24 AM 68.0 °F 68.0 °F 100% 29.86 in 5.0 mi North 4.6 mph - N/A Rain Rain
3:35 AM 68.0 °F 68.0 °F 100% 29.85 in 5.0 mi NNW 6.9 mph - N/A Rain , Thunderstorm Heavy Rain
3:42 AM 68.0 °F 68.0 °F 100% 29.86 in 2.5 mi NNW 5.8 mph - N/A Rain Heavy Rain
3:44 AM 68.0 °F 68.0 °F 100% 29.87 in 2.0 mi North 4.6 mph - N/A Rain , Thunderstorm Heavy Thunderstorms and Rain
3:46 AM 68.0 °F 68.0 °F 100% 29.87 in 1.8 mi North 5.8 mph - N/A Rain , Thunderstorm Heavy Thunderstorms and Rain
3:56 AM 66.2 °F 66.2 °F 100% 29.86 in 1.2 mi North 3.5 mph - N/A Rain , Thunderstorm Heavy Thunderstorms and Rain
3:58 AM 67.1 °F 67.1 °F 100% 29.86 in 1.2 mi Variable 3.5 mph - 0.70 in Rain , Thunderstorm Heavy Thunderstorms and Rain
3:59 AM 66.2 °F 66.2 °F 100% 29.86 in 1.2 mi Variable 3.5 mph - N/A Rain , Thunderstorm Heavy Rain
4:03 AM 66.2 °F 66.2 °F 100% 29.86 in 1.5 mi NW 1.2 mph - N/A Rain , Thunderstorm Heavy Rain
4:09 AM 66.2 °F 66.2 °F 100% 29.86 in 2.0 mi Calm Calm - N/A Rain , Thunderstorm Heavy Rain
4:16 AM 66.2 °F 66.2 °F 100% 29.87 in 3.0 mi ESE 3.5 mph - N/A Rain , Thunderstorm Rain
4:25 AM 68.0 °F 68.0 °F 100% 29.87 in 2.5 mi Calm Calm - N/A Rain Heavy Rain
4:27 AM 68.0 °F 68.0 °F 100% 29.86 in 1.5 mi East 2.3 mph - N/A Rain Heavy Rain
4:29 AM 68.0 °F 68.0 °F 100% 29.86 in 1.2 mi East 2.3 mph - N/A Rain Heavy Rain
4:35 AM 68.0 °F 68.0 °F 100% 29.85 in 1.5 mi East 2.3 mph - N/A Rain Heavy Rain
4:37 AM 68.0 °F 68.0 °F 100% 29.85 in 2.0 mi ENE 2.3 mph - N/A Rain Rain
4:39 AM 66.2 °F 66.2 °F 100% 29.85 in 3.0 mi NE 2.3 mph - N/A Rain Rain
4:58 AM 66.7 °F 66.7 °F 100% 29.86 in 9.0 mi SSW 4.6 mph - 0.56 in Rain Light Rain
5:58 AM 67.3 °F 67.3 °F 100% 29.86 in 7.0 mi South 4.6 mph - 0.26 in Rain Rain
6:13 AM 68.0 °F 68.0 °F 100% 29.87 in 9.0 mi South 5.8 mph - N/A Rain Light Rain
6:20 AM 68.0 °F 68.0 °F 100% 29.87 in 10.0 mi South 3.5 mph - N/A Rain Light Rain
6:58 AM 67.1 °F 67.1 °F 100% 29.86 in 10.0 mi SSW 4.6 mph - 0.07 in   Light Drizzle
7:00 AM 66.2 °F 66.2 °F 100% 29.86 in 10.0 mi SSW 4.6 mph - N/A   Mostly Cloudy
7:23 AM 66.2 °F 66.2 °F 100% 29.87 in 10.0 mi SSW 5.8 mph - N/A   Mostly Cloudy
7:38 AM 66.2 °F 66.2 °F 100% 29.87 in 10.0 mi WNW 15.0 mph - N/A   Drizzle
7:58 AM 61.5 °F 61.5 °F 100% 29.88 in 10.0 mi WNW 12.7 mph - 0.01 in   Light Drizzle
8:10 AM 60.8 °F 60.8 °F 100% 29.88 in 10.0 mi West 10.4 mph - N/A   Overcast
8:14 AM 60.8 °F 60.8 °F 100% 29.88 in 10.0 mi West 11.5 mph - N/A   Overcast
8:24 AM 60.8 °F 60.8 °F 100% 29.89 in 10.0 mi West 11.5 mph - N/A   Overcast
8:41 AM 59.0 °F 59.0 °F 100% 29.90 in 10.0 mi West 12.7 mph 17.3 mph N/A   Overcast
8:45 AM 59.0 °F 59.0 °F 100% 29.90 in 10.0 mi West 12.7 mph - N/A   Overcast
8:58 AM 58.3 °F 58.3 °F 100% 29.91 in 6.0 mi West 12.7 mph - 0.00 in   Overcast
9:26 AM 57.2 °F 57.2 °F 100% 29.92 in 4.0 mi WNW 9.2 mph - N/A   Light Drizzle
9:35 AM 57.2 °F 57.2 °F 100% 29.91 in 6.0 mi WNW 9.2 mph - N/A   Overcast
9:56 AM 55.4 °F 55.4 °F 100% 29.90 in 10.0 mi NW 8.1 mph - N/A   Overcast
9:58 AM 55.6 °F 55.6 °F 100% 29.90 in 10.0 mi NW 8.1 mph - 0.00 in   Overcast
10:30 AM 55.4 °F 55.4 °F 100% 29.90 in 10.0 mi NNW 3.5 mph - N/A   Overcast
10:58 AM 56.5 °F 56.5 °F 100% 29.91 in 10.0 mi West 2.3 mph - N/A   Overcast
11:16 AM 57.2 °F 57.2 °F 100% 29.91 in 10.0 mi West 6.9 mph - N/A   Overcast
11:17 AM 57.2 °F 57.2 °F 100% 29.91 in 10.0 mi WNW 5.8 mph - N/A   Light Drizzle
11:28 AM 57.2 °F 57.2 °F 100% 29.91 in 10.0 mi West 6.9 mph - N/A   Overcast
11:44 AM 57.2 °F 57.2 °F 100% 29.92 in 10.0 mi West 5.8 mph - N/A   Overcast
11:58 AM 58.1 °F 57.6 °F 98% 29.91 in 10.0 mi West 5.8 mph - 0.00 in   Overcast
12:01 PM 59.0 °F 57.2 °F 94% 29.91 in 10.0 mi WSW 6.9 mph - N/A   Overcast
12:08 PM 59.0 °F 57.2 °F 94% 29.90 in 10.0 mi West 10.4 mph - N/A   Overcast
12:58 PM 60.3 °F 52.5 °F 76% 29.89 in 10.0 mi West 8.1 mph - N/A   Overcast
1:37 PM 60.8 °F 53.6 °F 77% 29.88 in 10.0 mi SW 6.9 mph - N/A   Light Drizzle
1:55 PM 60.8 °F 55.4 °F 82% 29.87 in 10.0 mi SSW 10.4 mph - N/A   Overcast
1:58 PM 59.9 °F 55.6 °F 86% 29.87 in 10.0 mi SW 9.2 mph - 0.01 in   Overcast
2:01 PM 59.0 °F 55.4 °F 88% 29.87 in 10.0 mi SW 9.2 mph - N/A   Heavy Drizzle
2:12 PM 60.8 °F 55.4 °F 82% 29.86 in 10.0 mi SW 8.1 mph - N/A   Overcast
2:20 PM 60.8 °F 55.4 °F 82% 29.86 in 10.0 mi SW 9.2 mph - N/A   Light Drizzle
2:40 PM 59.0 °F 55.4 °F 88% 29.85 in 10.0 mi WSW 6.9 mph - N/A   Overcast
2:45 PM 59.0 °F 55.4 °F 88% 29.85 in 10.0 mi WSW 5.8 mph - N/A   Light Drizzle
2:58 PM 59.4 °F 55.8 °F 88% 29.86 in 8.0 mi SSW 5.8 mph - 0.01 in Rain Light Rain
3:12 PM 59.0 °F 57.2 °F 94% 29.85 in 10.0 mi SW 8.1 mph - N/A   Overcast
3:18 PM 59.0 °F 57.2 °F 94% 29.85 in 9.0 mi SW 6.9 mph - N/A Rain Rain
3:58 PM 56.8 °F 54.5 °F 92% 29.86 in 10.0 mi SSW 11.5 mph - 0.05 in   Light Drizzle
4:01 PM 57.2 °F 55.4 °F 94% 29.86 in 10.0 mi SSW 10.4 mph - N/A   Overcast
4:58 PM 59.7 °F 56.1 °F 88% 29.85 in 10.0 mi SSW 10.4 mph - 0.00 in   Partly Cloudy
5:58 PM 58.1 °F 55.0 °F 90% 29.85 in 10.0 mi SW 9.2 mph - N/A   Mostly Cloudy
6:58 PM 55.9 °F 55.9 °F 100% 29.87 in 10.0 mi WSW 8.1 mph - N/A   Clear
7:58 PM 54.1 °F 54.1 °F 100% 29.89 in 10.0 mi SW 4.6 mph - N/A   Clear
8:58 PM 54.1 °F 54.1 °F 100% 29.91 in 10.0 mi WSW 6.9 mph - N/A   Clear
9:58 PM 55.0 °F 53.8 °F 96% 29.95 in 10.0 mi NW 8.1 mph - N/A   Clear
10:58 PM 54.0 °F 47.5 °F 79% 29.96 in 10.0 mi NW 4.6 mph - N/A   Clear
11:58 PM 51.8 °F 49.6 °F 92% 29.96 in 10.0 mi Calm Calm - N/A   Clear